| time (UTC) | temp F | wind direction | speed MPH | gust MPH | rain 1hr in | rain 24hr in | rain mn in | humidity % | barometer mb |
| 20260508075026 | 42 | 217 | 0.0 | 0.0 | 0.00 | 0.00 | 0.00 | 80 | 1012.1 |
| 20260508074521 | 43 | 217 | 0.0 | 0.0 | 0.00 | 0.00 | 0.00 | 80 | 1012.0 |
| 20260508074020 | 43 | 215 | 0.0 | 3.0 | 0.00 | 0.00 | 0.00 | 80 | 1012.0 |
| 20260508073520 | 43 | 215 | 0.0 | 3.0 | 0.00 | 0.00 | 0.00 | 80 | 1012.2 |
| 20260508073020 | 43 | 227 | 0.0 | 3.0 | 0.00 | 0.00 | 0.00 | 80 | 1012.3 |
| 20260508072519 | 43 | 226 | 0.0 | 4.0 | 0.00 | 0.00 | 0.00 | 80 | 1012.3 |
| 20260508072020 | 44 | 227 | 1.0 | 4.0 | 0.00 | 0.00 | 0.00 | 80 | 1012.3 |
| 20260508071520 | 44 | 234 | 1.0 | 3.0 | 0.00 | 0.00 | 0.00 | 80 | 1012.3 |
| 20260508071017 | 44 | 228 | 0.0 | 0.0 | 0.00 | 0.00 | 0.00 | 79 | 1012.3 |
| 20260508070517 | 44 | 215 | 0.0 | 3.0 | 0.00 | 0.00 | 0.00 | 79 | 1012.3 |
| 20260508070022 | 44 | 213 | 0.0 | 4.0 | 0.00 | 0.00 | 0.00 | 79 | 1012.3 |
| 20260508065516 | 44 | 217 | 1.0 | 6.0 | 0.00 | 0.00 | 0.00 | 78 | 1012.3 |
| 20260508065016 | 44 | 226 | 3.0 | 6.0 | 0.00 | 0.00 | 0.00 | 78 | 1012.3 |
| 20260508064517 | 44 | 228 | 1.0 | 5.0 | 0.00 | 0.00 | 0.00 | 77 | 1012.2 |
| 20260508064017 | 44 | 224 | 1.0 | 4.0 | 0.00 | 0.00 | 0.00 | 77 | 1012.1 |
| 20260508063515 | 44 | 238 | 1.0 | 4.0 | 0.00 | 0.00 | 0.00 | 76 | 1012.2 |
| 20260508063013 | 44 | 249 | 2.0 | 5.0 | 0.00 | 0.00 | 0.00 | 75 | 1012.2 |
| 20260508062512 | 44 | 225 | 0.0 | 5.0 | 0.00 | 0.00 | 0.00 | 74 | 1012.1 |
| 20260508062013 | 44 | 92 | 0.0 | 0.0 | 0.00 | 0.00 | 0.00 | 73 | 1012.0 |
| 20260508061512 | 44 | 245 | 0.0 | 0.0 | 0.00 | 0.00 | 0.00 | 72 | 1012.1 |
| 20260508061012 | 44 | 245 | 0.0 | 0.0 | 0.00 | 0.00 | 0.00 | 72 | 1012.1 |
| 20260508060513 | 44 | 245 | 0.0 | 0.0 | 0.00 | 0.00 | 0.00 | 72 | 1012.0 |
| 20260508060011 | 44 | 245 | 0.0 | 0.0 | 0.00 | 0.00 | 0.00 | 72 | 1011.9 |
| 20260508055510 | 45 | 245 | 0.0 | 0.0 | 0.00 | 0.00 | 0.00 | 71 | 1012.1 |
| 20260508055012 | 45 | 245 | 0.0 | 0.0 | 0.00 | 0.00 | 0.00 | 70 | 1011.9 |
| 20260508054509 | 45 | 176 | 0.0 | 0.0 | 0.00 | 0.00 | 0.00 | 69 | 1011.9 |
| 20260508054006 | 45 | 173 | 0.0 | 0.0 | 0.00 | 0.00 | 0.00 | 68 | 1011.9 |
| 20260508053507 | 45 | 170 | 0.0 | 0.0 | 0.00 | 0.00 | 0.00 | 68 | 1011.9 |
| 20260508053005 | 45 | 169 | 0.0 | 1.0 | 0.00 | 0.00 | 0.00 | 67 | 1012.0 |
| 20260508052504 | 46 | 169 | 0.0 | 2.0 | 0.00 | 0.00 | 0.00 | 67 | 1012.1 |
| 20260508052004 | 46 | 168 | 0.0 | 5.0 | 0.00 | 0.00 | 0.00 | 67 | 1012.2 |
| 20260508051502 | 46 | 170 | 0.0 | 5.0 | 0.00 | 0.00 | 0.00 | 67 | 1012.1 |
| 20260508051002 | 46 | 147 | 0.0 | 2.0 | 0.00 | 0.00 | 0.00 | 66 | 1012.2 |
| 20260508050501 | 46 | 202 | 0.0 | 0.0 | 0.00 | 0.00 | 0.00 | 66 | 1012.3 |
| 20260508050104 | 47 | 203 | 0.0 | 0.0 | 0.00 | 0.00 | 0.00 | 66 | 1012.4 |
| 20260508045600 | 47 | 203 | 0.0 | 0.0 | 0.00 | 0.00 | 0.00 | 66 | 1012.3 |
| 20260508045101 | 47 | 205 | 0.0 | 0.0 | 0.00 | 0.00 | 0.00 | 66 | 1012.3 |
| 20260508044600 | 47 | 205 | 0.0 | 0.0 | 0.00 | 0.00 | 0.00 | 66 | 1012.3 |
| 20260508044059 | 47 | 207 | 0.0 | 0.0 | 0.00 | 0.00 | 0.00 | 66 | 1012.3 |
| 20260508043558 | 47 | 203 | 0.0 | 0.0 | 0.00 | 0.00 | 0.00 | 66 | 1012.3 |
| 20260508043105 | 47 | 203 | 0.0 | 2.0 | 0.00 | 0.00 | 0.00 | 66 | 1012.3 |
| 20260508042558 | 47 | 221 | 0.0 | 2.0 | 0.00 | 0.00 | 0.00 | 66 | 1012.3 |
| 20260508042057 | 47 | 248 | 0.0 | 2.0 | 0.00 | 0.00 | 0.00 | 66 | 1012.4 |
| 20260508041558 | 47 | 248 | 0.0 | 4.0 | 0.00 | 0.00 | 0.00 | 66 | 1012.4 |
| 20260508041059 | 47 | 241 | 0.0 | 4.0 | 0.00 | 0.00 | 0.00 | 65 | 1012.4 |
| 20260508040558 | 47 | 240 | 0.0 | 2.0 | 0.00 | 0.00 | 0.00 | 65 | 1012.4 |
| 20260508040056 | 47 | 240 | 0.0 | 2.0 | 0.00 | 0.00 | 0.00 | 65 | 1012.4 |
| 20260508035557 | 47 | 221 | 0.0 | 0.0 | 0.00 | 0.00 | 0.00 | 65 | 1012.4 |
| 20260508035055 | 47 | 221 | 0.0 | 0.0 | 0.00 | 0.00 | 0.00 | 65 | 1012.3 |
| 20260508034555 | 47 | 221 | 0.0 | 0.0 | 0.00 | 0.00 | 0.00 | 65 | 1012.3 |
| 20260508034054 | 47 | 247 | 0.0 | 0.0 | 0.00 | 0.00 | 0.00 | 65 | 1012.3 |
| 20260508033554 | 47 | 92 | 0.0 | 0.0 | 0.00 | 0.00 | 0.00 | 65 | 1012.1 |
| 20260508033055 | 47 | 79 | 0.0 | 0.0 | 0.00 | 0.00 | 0.00 | 64 | 1012.1 |
| 20260508032554 | 47 | 79 | 0.0 | 0.0 | 0.00 | 0.00 | 0.00 | 64 | 1011.9 |
| 20260508032055 | 47 | 67 | 0.0 | 0.0 | 0.00 | 0.00 | 0.00 | 63 | 1011.9 |
| 20260508031555 | 47 | 67 | 0.0 | 0.0 | 0.00 | 0.00 | 0.00 | 63 | 1011.9 |
| 20260508031057 | 47 | 67 | 0.0 | 0.0 | 0.00 | 0.00 | 0.00 | 63 | 1011.9 |
| 20260508030553 | 47 | 67 | 0.0 | 0.0 | 0.00 | 0.00 | 0.00 | 62 | 1011.8 |
| 20260508030100 | 48 | 67 | 0.0 | 0.0 | 0.00 | 0.00 | 0.00 | 62 | 1011.9 |
| 20260508025553 | 48 | 67 | 0.0 | 0.0 | 0.00 | 0.00 | 0.00 | 62 | 1011.6 |
| 20260508025053 | 48 | 67 | 0.0 | 0.0 | 0.00 | 0.00 | 0.00 | 61 | 1011.7 |
| 20260508024558 | 48 | 67 | 0.0 | 0.0 | 0.00 | 0.00 | 0.00 | 61 | 1011.5 |
| 20260508024055 | 48 | 67 | 0.0 | 0.0 | 0.00 | 0.00 | 0.00 | 61 | 1011.3 |
| 20260508023553 | 48 | 67 | 0.0 | 0.0 | 0.00 | 0.00 | 0.00 | 60 | 1011.1 |
| 20260508023053 | 49 | 67 | 0.0 | 0.0 | 0.00 | 0.00 | 0.00 | 60 | 1011.2 |
| 20260508022554 | 49 | 67 | 0.0 | 0.0 | 0.00 | 0.00 | 0.00 | 60 | 1011.3 |
| 20260508022053 | 49 | 67 | 0.0 | 0.0 | 0.00 | 0.00 | 0.00 | 60 | 1011.3 |
| 20260508021653 | 49 | 67 | 0.0 | 0.0 | 0.00 | 0.00 | 0.00 | 59 | 1011.3 |
| 20260508021054 | 49 | 67 | 0.0 | 0.0 | 0.00 | 0.00 | 0.00 | 59 | 1011.3 |
| 20260508020555 | 49 | 67 | 0.0 | 0.0 | 0.00 | 0.00 | 0.00 | 59 | 1011.2 |
| 20260508020052 | 49 | 66 | 0.0 | 0.0 | 0.00 | 0.00 | 0.00 | 59 | 1011.2 |
| 20260508015552 | 49 | 66 | 0.0 | 0.0 | 0.00 | 0.00 | 0.00 | 59 | 1011.3 |
| 20260508015051 | 49 | 66 | 0.0 | 4.0 | 0.00 | 0.00 | 0.00 | 59 | 1011.2 |
| 20260508014552 | 49 | 324 | 0.0 | 4.0 | 0.00 | 0.00 | 0.00 | 60 | 1011.2 |
| 20260508014051 | 50 | 313 | 0.0 | 4.0 | 0.00 | 0.00 | 0.00 | 60 | 1011.0 |
| 20260508013551 | 50 | 345 | 0.0 | 0.0 | 0.00 | 0.00 | 0.00 | 59 | 1011.0 |
| 20260508013050 | 50 | 345 | 0.0 | 0.0 | 0.00 | 0.00 | 0.00 | 58 | 1010.9 |
| 20260508012551 | 50 | 345 | 0.0 | 0.0 | 0.00 | 0.00 | 0.00 | 58 | 1010.8 |
| 20260508012051 | 51 | 345 | 0.0 | 0.0 | 0.00 | 0.00 | 0.00 | 57 | 1010.8 |
| 20260508011551 | 51 | 345 | 0.0 | 0.0 | 0.00 | 0.00 | 0.00 | 57 | 1010.7 |
| 20260508011050 | 51 | 345 | 0.0 | 0.0 | 0.00 | 0.00 | 0.00 | 56 | 1010.8 |
| 20260508010550 | 51 | 345 | 0.0 | 0.0 | 0.00 | 0.00 | 0.00 | 56 | 1010.7 |
| 20260508010050 | 52 | 345 | 0.0 | 1.0 | 0.00 | 0.00 | 0.00 | 55 | 1010.7 |
| 20260508005550 | 52 | 345 | 0.0 | 1.0 | 0.00 | 0.00 | 0.00 | 55 | 1010.7 |
| 20260508005053 | 52 | 345 | 0.0 | 1.0 | 0.00 | 0.00 | 0.00 | 54 | 1010.6 |
| 20260508004553 | 52 | 345 | 0.0 | 0.0 | 0.00 | 0.00 | 0.00 | 53 | 1010.6 |
| 20260508004049 | 53 | 345 | 0.0 | 0.0 | 0.00 | 0.00 | 0.00 | 53 | 1010.6 |
| 20260508003549 | 53 | 345 | 0.0 | 0.0 | 0.00 | 0.00 | 0.00 | 52 | 1010.5 |
| 20260508003049 | 53 | 345 | 0.0 | 1.0 | 0.00 | 0.00 | 0.00 | 51 | 1010.5 |
| 20260508002551 | 53 | 345 | 0.0 | 2.0 | 0.00 | 0.00 | 0.00 | 50 | 1010.4 |
| 20260508002048 | 53 | 344 | 0.0 | 0.0 | 0.00 | 0.00 | 0.00 | 50 | 1010.4 |
| 20260508001549 | 54 | 344 | 0.0 | 1.0 | 0.00 | 0.00 | 0.00 | 49 | 1010.4 |
| 20260508001048 | 54 | 342 | 0.0 | 2.0 | 0.00 | 0.00 | 0.00 | 49 | 1010.4 |
| 20260508000548 | 54 | 342 | 0.0 | 3.0 | 0.00 | 0.00 | 0.00 | 47 | 1010.4 |
| 20260508000047 | 54 | 13 | 1.0 | 3.0 | 0.00 | 0.00 | 0.00 | 47 | 1010.3 |
| 20260507235548 | 55 | 245 | 0.0 | 3.0 | 0.00 | 0.00 | 0.00 | 47 | 1010.3 |
| 20260507235050 | 55 | 243 | 0.0 | 4.0 | 0.00 | 0.00 | 0.00 | 46 | 1010.2 |
| 20260507234550 | 55 | 9 | 1.0 | 5.0 | 0.00 | 0.00 | 0.00 | 45 | 1010.2 |
| 20260507234047 | 55 | 11 | 2.0 | 5.0 | 0.00 | 0.00 | 0.00 | 45 | 1010.1 |
| 20260507233548 | 56 | 338 | 1.0 | 4.0 | 0.00 | 0.00 | 0.00 | 46 | 1010.1 |
| 20260507233046 | 56 | 77 | 1.0 | 5.0 | 0.00 | 0.00 | 0.00 | 46 | 1010.0 |
| 20260507232549 | 56 | 22 | 2.0 | 5.0 | 0.00 | 0.00 | 0.00 | 46 | 1010.0 |
| 20260507232047 | 56 | 301 | 0.0 | 6.0 | 0.00 | 0.00 | 0.00 | 46 | 1010.0 |
| 20260507231545 | 56 | 346 | 0.0 | 5.0 | 0.00 | 0.00 | 0.00 | 46 | 1010.0 |
| 20260507231046 | 56 | 19 | 0.0 | 5.0 | 0.00 | 0.00 | 0.00 | 45 | 1010.0 |
| 20260507230545 | 57 | 298 | 1.0 | 6.0 | 0.00 | 0.00 | 0.00 | 45 | 1010.1 |
| 20260507230045 | 57 | 271 | 2.0 | 8.0 | 0.00 | 0.00 | 0.00 | 46 | 1010.0 |
| 20260507225545 | 57 | 311 | 1.0 | 8.0 | 0.00 | 0.00 | 0.00 | 46 | 1010.0 |
| 20260507225045 | 57 | 350 | 1.0 | 8.0 | 0.00 | 0.00 | 0.00 | 45 | 1009.9 |
| 20260507224545 | 57 | 17 | 2.0 | 8.0 | 0.00 | 0.00 | 0.00 | 44 | 1010.0 |
| 20260507224045 | 57 | 5 | 2.0 | 8.0 | 0.00 | 0.00 | 0.00 | 46 | 1009.8 |
| 20260507223547 | 57 | 38 | 2.0 | 11.0 | 0.00 | 0.00 | 0.00 | 45 | 1009.8 |
| 20260507223044 | 57 | 234 | 4.0 | 11.0 | 0.00 | 0.00 | 0.00 | 44 | 1009.9 |
| 20260507222543 | 57 | 305 | 1.0 | 5.0 | 0.00 | 0.00 | 0.00 | 45 | 1009.9 |
| 20260507222042 | 57 | 255 | 2.0 | 5.0 | 0.00 | 0.00 | 0.00 | 45 | 1009.8 |
| 20260507221543 | 58 | 295 | 0.0 | 5.0 | 0.00 | 0.00 | 0.00 | 44 | 1009.9 |
| 20260507221045 | 58 | 298 | 0.0 | 6.0 | 0.00 | 0.00 | 0.00 | 43 | 1009.9 |
| 20260507220543 | 58 | 305 | 0.0 | 8.0 | 0.00 | 0.00 | 0.00 | 44 | 1009.9 |
| 20260507220042 | 58 | 247 | 1.0 | 8.0 | 0.00 | 0.00 | 0.00 | 44 | 1010.0 |
| 20260507215541 | 58 | 26 | 1.0 | 6.0 | 0.00 | 0.00 | 0.00 | 45 | 1009.9 |
| 20260507215041 | 58 | 28 | 2.0 | 6.0 | 0.00 | 0.00 | 0.00 | 42 | 1010.0 |
| 20260507214541 | 59 | 226 | 1.0 | 5.0 | 0.00 | 0.00 | 0.00 | 42 | 1010.0 |
| 20260507214041 | 59 | 279 | 2.0 | 8.0 | 0.00 | 0.00 | 0.00 | 44 | 1010.1 |
| 20260507213541 | 59 | 324 | 3.0 | 8.0 | 0.00 | 0.00 | 0.00 | 42 | 1010.1 |
| 20260507213041 | 59 | 342 | 1.0 | 7.0 | 0.00 | 0.00 | 0.00 | 42 | 1010.1 |
| 20260507212540 | 59 | 351 | 2.0 | 8.0 | 0.00 | 0.00 | 0.00 | 44 | 1010.1 |
| 20260507212039 | 59 | 302 | 3.0 | 9.0 | 0.00 | 0.00 | 0.00 | 44 | 1010.0 |
| 20260507211539 | 59 | 256 | 2.0 | 9.0 | 0.00 | 0.00 | 0.00 | 45 | 1010.0 |
| 20260507211039 | 59 | 287 | 4.0 | 10.0 | 0.00 | 0.00 | 0.00 | 42 | 1010.0 |
| 20260507210539 | 59 | 290 | 3.0 | 10.0 | 0.00 | 0.00 | 0.00 | 41 | 1010.0 |
| 20260507210039 | 60 | 284 | 1.0 | 7.0 | 0.00 | 0.00 | 0.00 | 43 | 1010.0 |
| 20260507205539 | 59 | 307 | 3.0 | 9.0 | 0.00 | 0.00 | 0.00 | 42 | 1010.1 |
| 20260507205042 | 59 | 60 | 1.0 | 9.0 | 0.00 | 0.00 | 0.00 | 43 | 1010.1 |
| 20260507204539 | 59 | 268 | 2.0 | 10.0 | 0.00 | 0.00 | 0.00 | 43 | 1010.1 |
| 20260507204039 | 58 | 296 | 3.0 | 10.0 | 0.00 | 0.00 | 0.00 | 46 | 1010.2 |
| 20260507203537 | 58 | 311 | 2.0 | 12.0 | 0.00 | 0.00 | 0.00 | 44 | 1010.1 |
| 20260507203037 | 58 | 335 | 4.0 | 12.0 | 0.00 | 0.00 | 0.00 | 43 | 1010.2 |
| 20260507202537 | 58 | 262 | 2.0 | 8.0 | 0.00 | 0.00 | 0.00 | 43 | 1010.1 |
| 20260507202036 | 58 | 323 | 1.0 | 8.0 | 0.00 | 0.00 | 0.00 | 42 | 1010.1 |
| 20260507201539 | 59 | 314 | 2.0 | 10.0 | 0.00 | 0.00 | 0.00 | 41 | 1010.1 |
| 20260507201036 | 59 | 225 | 3.0 | 10.0 | 0.00 | 0.00 | 0.00 | 41 | 1010.1 |
| 20260507200540 | 60 | 297 | 5.0 | 10.0 | 0.00 | 0.00 | 0.00 | 41 | 1010.2 |
| 20260507200038 | 59 | 260 | 3.0 | 13.0 | 0.00 | 0.00 | 0.00 | 45 | 1010.2 |
| 20260507195536 | 59 | 285 | 6.0 | 13.0 | 0.00 | 0.01 | 0.00 | 45 | 1010.3 |
| 20260507195034 | 58 | 52 | 2.0 | 5.0 | 0.00 | 0.01 | 0.00 | 44 | 1010.3 |
| 20260507194543 | 58 | 30 | 0.0 | 5.0 | 0.00 | 0.01 | 0.00 | 46 | 1010.3 |
| 20260507194037 | 58 | 288 | 2.0 | 7.0 | 0.00 | 0.01 | 0.00 | 46 | 1010.4 |
| 20260507193533 | 58 | 290 | 2.0 | 6.0 | 0.00 | 0.01 | 0.00 | 44 | 1010.5 |
| 20260507193033 | 58 | 274 | 1.0 | 8.0 | 0.00 | 0.01 | 0.00 | 44 | 1010.5 |
| 20260507192531 | 58 | 290 | 3.0 | 8.0 | 0.00 | 0.01 | 0.00 | 42 | 1010.6 |
| 20260507192031 | 58 | 350 | 2.0 | 10.0 | 0.00 | 0.01 | 0.00 | 41 | 1010.6 |
| 20260507191534 | 59 | 242 | 1.0 | 10.0 | 0.00 | 0.01 | 0.00 | 40 | 1010.6 |
| 20260507191031 | 59 | 224 | 1.0 | 8.0 | 0.00 | 0.01 | 0.00 | 41 | 1010.7 |
| 20260507190531 | 59 | 326 | 1.0 | 8.0 | 0.00 | 0.01 | 0.00 | 42 | 1010.6 |
| 20260507190131 | 59 | 262 | 2.0 | 10.0 | 0.00 | 0.01 | 0.00 | 41 | 1010.7 |
| 20260507185530 | 59 | 286 | 4.0 | 8.0 | 0.00 | 0.01 | 0.00 | 45 | 1010.6 |
| 20260507185030 | 59 | 360 | 0.0 | 10.0 | 0.00 | 0.01 | 0.00 | 43 | 1010.7 |
| 20260507184532 | 59 | 257 | 5.0 | 11.0 | 0.00 | 0.01 | 0.00 | 44 | 1010.8 |
| 20260507184028 | 58 | 236 | 2.0 | 11.0 | 0.00 | 0.01 | 0.00 | 41 | 1010.8 |
| 20260507183528 | 58 | 297 | 4.0 | 10.0 | 0.00 | 0.01 | 0.00 | 43 | 1010.8 |
| 20260507183036 | 58 | 267 | 5.0 | 10.0 | 0.00 | 0.01 | 0.00 | 43 | 1011.0 |
| 20260507182527 | 59 | 294 | 2.0 | 8.0 | 0.00 | 0.01 | 0.00 | 42 | 1011.0 |
| 20260507182026 | 59 | 246 | 4.0 | 10.0 | 0.00 | 0.01 | 0.00 | 40 | 1011.1 |
| 20260507181526 | 60 | 216 | 5.0 | 10.0 | 0.00 | 0.01 | 0.00 | 41 | 1011.0 |
| 20260507181027 | 60 | 236 | 5.0 | 10.0 | 0.00 | 0.01 | 0.00 | 44 | 1011.1 |
| 20260507180523 | 59 | 250 | 0.0 | 10.0 | 0.00 | 0.01 | 0.00 | 45 | 1011.2 |
| 20260507180022 | 59 | 246 | 5.0 | 10.0 | 0.00 | 0.01 | 0.00 | 43 | 1011.3 |
| 20260507175521 | 58 | 260 | 4.0 | 11.0 | 0.00 | 0.01 | 0.00 | 45 | 1011.3 |
| 20260507175020 | 58 | 217 | 2.0 | 10.0 | 0.00 | 0.01 | 0.00 | 46 | 1011.4 |
| 20260507174522 | 57 | 273 | 3.0 | 10.0 | 0.00 | 0.01 | 0.00 | 47 | 1011.5 |
| 20260507174018 | 57 | 226 | 3.0 | 12.0 | 0.00 | 0.01 | 0.00 | 48 | 1011.5 |
| 20260507173521 | 56 | 294 | 5.0 | 12.0 | 0.00 | 0.01 | 0.00 | 45 | 1011.6 |
| 20260507173018 | 57 | 246 | 0.0 | 8.0 | 0.00 | 0.01 | 0.00 | 45 | 1011.5 |
| 20260507172517 | 57 | 355 | 3.0 | 8.0 | 0.00 | 0.01 | 0.00 | 44 | 1011.6 |
| 20260507172016 | 57 | 288 | 3.0 | 8.0 | 0.00 | 0.01 | 0.00 | 45 | 1011.7 |
| 20260507171526 | 57 | 343 | 4.0 | 8.0 | 0.00 | 0.01 | 0.00 | 49 | 1011.6 |
| 20260507171015 | 56 | 298 | 2.0 | 6.0 | 0.00 | 0.01 | 0.00 | 49 | 1011.8 |
| 20260507170516 | 56 | 256 | 1.0 | 10.0 | 0.00 | 0.01 | 0.00 | 47 | 1011.7 |
| 20260507170015 | 55 | 286 | 3.0 | 10.0 | 0.00 | 0.01 | 0.00 | 46 | 1011.8 |
| 20260507165515 | 56 | 319 | 1.0 | 5.0 | 0.00 | 0.01 | 0.00 | 46 | 1011.9 |
| 20260507165115 | 56 | 15 | 1.0 | 8.0 | 0.00 | 0.01 | 0.00 | 45 | 1011.9 |
| 20260507164515 | 57 | 234 | 3.0 | 8.0 | 0.00 | 0.01 | 0.00 | 45 | 1011.9 |
| 20260507164014 | 57 | 336 | 1.0 | 8.0 | 0.00 | 0.01 | 0.00 | 44 | 1011.9 |
| 20260507163513 | 57 | 225 | 3.0 | 9.0 | 0.00 | 0.01 | 0.00 | 47 | 1011.8 |
| 20260507163011 | 57 | 225 | 1.0 | 9.0 | 0.00 | 0.01 | 0.00 | 49 | 1011.9 |
| 20260507162512 | 56 | 248 | 1.0 | 8.0 | 0.00 | 0.01 | 0.00 | 52 | 1012.1 |
| 20260507162012 | 55 | 306 | 3.0 | 8.0 | 0.00 | 0.01 | 0.00 | 48 | 1012.2 |
| 20260507161513 | 55 | 198 | 4.0 | 8.0 | 0.00 | 0.01 | 0.00 | 47 | 1012.3 |
| 20260507161011 | 55 | 207 | 3.0 | 8.0 | 0.00 | 0.01 | 0.00 | 50 | 1012.4 |
| 20260507160514 | 54 | 178 | 2.0 | 6.0 | 0.00 | 0.01 | 0.00 | 50 | 1012.3 |
| 20260507160025 | 54 | 47 | 2.0 | 6.0 | 0.00 | 0.01 | 0.00 | 48 | 1012.3 |
| 20260507155515 | 54 | 254 | 3.0 | 8.0 | 0.00 | 0.02 | 0.00 | 48 | 1012.4 |
| 20260507155011 | 55 | 259 | 4.0 | 10.0 | 0.00 | 0.02 | 0.00 | 47 | 1012.5 |
| 20260507154511 | 55 | 250 | 3.0 | 10.0 | 0.00 | 0.02 | 0.00 | 47 | 1012.4 |
| 20260507154011 | 55 | 220 | 3.0 | 9.0 | 0.00 | 0.02 | 0.00 | 47 | 1012.5 |
| 20260507153610 | 56 | 208 | 5.0 | 9.0 | 0.00 | 0.02 | 0.00 | 47 | 1012.5 |
| 20260507153010 | 56 | 323 | 2.0 | 11.0 | 0.00 | 0.02 | 0.00 | 49 | 1012.7 |
| 20260507152510 | 56 | 224 | 4.0 | 10.0 | 0.00 | 0.02 | 0.00 | 47 | 1012.7 |
| 20260507152010 | 56 | 286 | 2.0 | 9.0 | 0.00 | 0.02 | 0.00 | 49 | 1012.7 |
| 20260507151509 | 56 | 240 | 5.0 | 9.0 | 0.00 | 0.02 | 0.00 | 45 | 1012.7 |
| 20260507151008 | 56 | 235 | 3.0 | 9.0 | 0.00 | 0.02 | 0.00 | 47 | 1012.8 |
| 20260507150510 | 56 | 235 | 3.0 | 9.0 | 0.00 | 0.02 | 0.00 | 49 | 1013.0 |
| 20260507150009 | 55 | 240 | 3.0 | 9.0 | 0.00 | 0.02 | 0.00 | 53 | 1012.9 |
| 20260507145505 | 55 | 240 | 4.0 | 9.0 | 0.00 | 0.04 | 0.00 | 48 | 1013.0 |
| 20260507145004 | 55 | 213 | 3.0 | 9.0 | 0.00 | 0.04 | 0.00 | 50 | 1013.1 |
| 20260507144503 | 55 | 286 | 2.0 | 6.0 | 0.00 | 0.04 | 0.00 | 50 | 1013.2 |
| 20260507144002 | 54 | 338 | 1.0 | 9.0 | 0.00 | 0.04 | 0.00 | 53 | 1013.1 |
| 20260507143559 | 54 | 247 | 1.0 | 11.0 | 0.00 | 0.04 | 0.00 | 52 | 1013.2 |
| 20260507143111 | 54 | 304 | 5.0 | 11.0 | 0.00 | 0.04 | 0.00 | 50 | 1013.3 |
| 20260507142600 | 54 | 37 | 3.0 | 10.0 | 0.00 | 0.04 | 0.00 | 50 | 1013.2 |
| 20260507142057 | 54 | 277 | 4.0 | 11.0 | 0.00 | 0.04 | 0.00 | 50 | 1013.3 |
| 20260507141618 | 54 | 231 | 5.0 | 11.0 | 0.00 | 0.04 | 0.00 | 52 | 1013.3 |
| 20260507141057 | 53 | 213 | 3.0 | 7.0 | 0.00 | 0.04 | 0.00 | 55 | 1013.3 |
| 20260507140557 | 53 | 209 | 3.0 | 6.0 | 0.00 | 0.04 | 0.00 | 56 | 1013.3 |
| 20260507140054 | 52 | 267 | 1.0 | 10.0 | 0.00 | 0.04 | 0.00 | 55 | 1013.3 |
| 20260507135552 | 52 | 219 | 5.0 | 10.0 | 0.00 | 0.08 | 0.00 | 56 | 1013.4 |
| 20260507135051 | 52 | 242 | 0.0 | 9.0 | 0.00 | 0.08 | 0.00 | 56 | 1013.5 |
| 20260507134551 | 51 | 228 | 3.0 | 8.0 | 0.00 | 0.08 | 0.00 | 56 | 1013.5 |
| 20260507134050 | 51 | 347 | 2.0 | 5.0 | 0.00 | 0.08 | 0.00 | 58 | 1013.5 |
| 20260507133550 | 51 | 269 | 2.0 | 9.0 | 0.00 | 0.08 | 0.00 | 59 | 1013.5 |
| 20260507133048 | 51 | 265 | 4.0 | 9.0 | 0.00 | 0.08 | 0.00 | 61 | 1013.6 |
| 20260507132547 | 50 | 297 | 2.0 | 9.0 | 0.00 | 0.08 | 0.00 | 61 | 1013.5 |
| 20260507132047 | 50 | 321 | 3.0 | 9.0 | 0.00 | 0.08 | 0.00 | 62 | 1013.5 |
| 20260507131557 | 50 | 269 | 3.0 | 6.0 | 0.00 | 0.08 | 0.00 | 65 | 1013.6 |
| 20260507131044 | 50 | 207 | 0.0 | 4.0 | 0.00 | 0.08 | 0.00 | 67 | 1013.5 |
| 20260507130542 | 49 | 219 | 2.0 | 4.0 | 0.00 | 0.08 | 0.00 | 71 | 1013.5 |
| 20260507130044 | 49 | 244 | 0.0 | 4.0 | 0.00 | 0.08 | 0.00 | 71 | 1013.5 |
| 20260507125540 | 48 | 233 | 1.0 | 4.0 | 0.00 | 0.17 | 0.00 | 74 | 1013.5 |
| 20260507125045 | 48 | 223 | 0.0 | 6.0 | 0.00 | 0.17 | 0.00 | 76 | 1013.6 |
| 20260507124538 | 47 | 215 | 1.0 | 5.0 | 0.00 | 0.17 | 0.00 | 78 | 1013.5 |
| 20260507124036 | 47 | 181 | 0.0 | 3.0 | 0.00 | 0.17 | 0.00 | 80 | 1013.6 |
| 20260507123534 | 47 | 242 | 1.0 | 4.0 | 0.00 | 0.17 | 0.00 | 81 | 1013.7 |
| 20260507123034 | 46 | 145 | 0.0 | 4.0 | 0.00 | 0.17 | 0.00 | 83 | 1013.8 |
| 20260507122533 | 45 | 210 | 0.0 | 4.0 | 0.00 | 0.17 | 0.00 | 84 | 1013.8 |
| 20260507122033 | 45 | 220 | 1.0 | 4.0 | 0.00 | 0.17 | 0.00 | 85 | 1013.7 |
| 20260507121535 | 44 | 228 | 2.0 | 4.0 | 0.00 | 0.17 | 0.00 | 85 | 1013.8 |
| 20260507121033 | 44 | 249 | 2.0 | 4.0 | 0.00 | 0.17 | 0.00 | 86 | 1013.7 |
| 20260507120532 | 43 | 225 | 0.0 | 2.0 | 0.00 | 0.17 | 0.00 | 86 | 1013.7 |
| 20260507120033 | 43 | 226 | 0.0 | 4.0 | 0.00 | 0.17 | 0.00 | 87 | 1013.7 |
| 20260507115532 | 42 | 251 | 2.0 | 4.0 | 0.00 | 0.17 | 0.00 | 87 | 1013.7 |
| 20260507115033 | 42 | 214 | 0.0 | 0.0 | 0.00 | 0.17 | 0.00 | 87 | 1013.7 |
| 20260507114532 | 41 | 214 | 0.0 | 3.0 | 0.00 | 0.17 | 0.00 | 87 | 1013.6 |
| 20260507114033 | 41 | 214 | 0.0 | 3.0 | 0.00 | 0.17 | 0.00 | 87 | 1013.6 |
| 20260507113531 | 40 | 202 | 0.0 | 3.0 | 0.00 | 0.17 | 0.00 | 86 | 1013.6 |
| 20260507113031 | 40 | 263 | 0.0 | 0.0 | 0.00 | 0.17 | 0.00 | 86 | 1013.6 |
| 20260507112530 | 39 | 346 | 0.0 | 0.0 | 0.00 | 0.17 | 0.00 | 86 | 1013.4 |
| 20260507112030 | 39 | 348 | 0.0 | 0.0 | 0.00 | 0.17 | 0.00 | 86 | 1013.3 |
| 20260507111530 | 39 | 348 | 0.0 | 0.0 | 0.00 | 0.17 | 0.00 | 85 | 1013.3 |
| 20260507111030 | 38 | 348 | 0.0 | 0.0 | 0.00 | 0.17 | 0.00 | 84 | 1013.4 |
| 20260507110530 | 38 | 348 | 0.0 | 0.0 | 0.00 | 0.17 | 0.00 | 84 | 1013.5 |
| 20260507110030 | 38 | 348 | 0.0 | 0.0 | 0.00 | 0.17 | 0.00 | 84 | 1013.4 |
| 20260507105529 | 38 | 348 | 0.0 | 0.0 | 0.00 | 0.17 | 0.00 | 83 | 1013.4 |
| 20260507105029 | 38 | 348 | 0.0 | 0.0 | 0.00 | 0.17 | 0.00 | 83 | 1013.4 |
| 20260507104528 | 38 | 348 | 0.0 | 0.0 | 0.00 | 0.17 | 0.00 | 83 | 1013.3 |
| 20260507104027 | 38 | 348 | 0.0 | 0.0 | 0.00 | 0.17 | 0.00 | 83 | 1013.3 |
| 20260507103526 | 38 | 348 | 0.0 | 0.0 | 0.00 | 0.17 | 0.00 | 83 | 1013.2 |
| 20260507103025 | 38 | 348 | 0.0 | 0.0 | 0.00 | 0.17 | 0.00 | 83 | 1013.2 |
| 20260507102525 | 38 | 348 | 0.0 | 0.0 | 0.00 | 0.17 | 0.00 | 83 | 1013.0 |
| 20260507102025 | 38 | 348 | 0.0 | 1.0 | 0.00 | 0.17 | 0.00 | 82 | 1013.1 |
| 20260507101525 | 38 | 348 | 0.0 | 1.0 | 0.00 | 0.17 | 0.00 | 82 | 1013.0 |
| 20260507101025 | 39 | 348 | 0.0 | 0.0 | 0.00 | 0.17 | 0.00 | 81 | 1012.9 |
| 20260507100523 | 39 | 348 | 0.0 | 0.0 | 0.00 | 0.17 | 0.00 | 81 | 1012.9 |
| 20260507100029 | 39 | 242 | 0.0 | 0.0 | 0.00 | 0.17 | 0.00 | 81 | 1012.9 |
| 20260507095524 | 39 | 242 | 0.0 | 0.0 | 0.00 | 0.17 | 0.00 | 81 | 1013.0 |
| 20260507095021 | 39 | 242 | 0.0 | 0.0 | 0.00 | 0.17 | 0.00 | 81 | 1012.8 |
| 20260507094520 | 40 | 242 | 0.0 | 0.0 | 0.00 | 0.17 | 0.00 | 81 | 1013.0 |
| 20260507094021 | 40 | 242 | 0.0 | 0.0 | 0.00 | 0.17 | 0.00 | 81 | 1012.9 |
| 20260507093518 | 40 | 242 | 0.0 | 0.0 | 0.00 | 0.17 | 0.00 | 81 | 1012.9 |
| 20260507093017 | 40 | 242 | 0.0 | 0.0 | 0.00 | 0.17 | 0.00 | 81 | 1012.9 |
| 20260507092517 | 41 | 242 | 0.0 | 0.0 | 0.00 | 0.17 | 0.00 | 81 | 1013.0 |
| 20260507092021 | 41 | 242 | 0.0 | 0.0 | 0.00 | 0.17 | 0.00 | 81 | 1012.9 |
| 20260507091519 | 41 | 242 | 0.0 | 0.0 | 0.00 | 0.17 | 0.00 | 81 | 1013.0 |
| 20260507091014 | 41 | 242 | 0.0 | 0.0 | 0.00 | 0.17 | 0.00 | 81 | 1013.0 |
| 20260507090514 | 41 | 242 | 0.0 | 0.0 | 0.00 | 0.17 | 0.00 | 81 | 1013.0 |
| 20260507090012 | 42 | 242 | 0.0 | 0.0 | 0.00 | 0.17 | 0.00 | 81 | 1013.0 |
| 20260507085512 | 42 | 242 | 0.0 | 0.0 | 0.00 | 0.17 | 0.00 | 81 | 1013.0 |
| 20260507085011 | 42 | 242 | 0.0 | 0.0 | 0.00 | 0.17 | 0.00 | 81 | 1012.9 |
| 20260507084509 | 42 | 242 | 0.0 | 0.0 | 0.00 | 0.17 | 0.00 | 81 | 1013.0 |
| 20260507084013 | 43 | 242 | 0.0 | 0.0 | 0.00 | 0.17 | 0.00 | 81 | 1012.9 |
| 20260507083508 | 43 | 242 | 0.0 | 0.0 | 0.00 | 0.17 | 0.00 | 81 | 1013.0 |
| 20260507083008 | 43 | 242 | 0.0 | 0.0 | 0.00 | 0.17 | 0.00 | 81 | 1013.0 |
| 20260507082507 | 43 | 242 | 0.0 | 0.0 | 0.00 | 0.17 | 0.00 | 81 | 1013.0 |
| 20260507082006 | 43 | 242 | 0.0 | 0.0 | 0.00 | 0.17 | 0.00 | 81 | 1012.9 |
| 20260507081506 | 43 | 242 | 0.0 | 0.0 | 0.00 | 0.17 | 0.00 | 81 | 1013.0 |
| 20260507081006 | 44 | 242 | 0.0 | 0.0 | 0.00 | 0.17 | 0.00 | 82 | 1013.0 |
| 20260507080508 | 44 | 242 | 0.0 | 0.0 | 0.00 | 0.17 | 0.00 | 81 | 1013.0 |
| 20260507080005 | 44 | 250 | 0.0 | 0.0 | 0.00 | 0.17 | 0.00 | 81 | 1013.0 |
| 20260507075505 | 44 | 250 | 0.0 | 0.0 | 0.00 | 0.17 | 0.00 | 81 | 1012.9 |